Location: Buckland
(65.9785°N, 161.1281°W)
Time: 21:37:18
(UTC+00:00)

PRISM - Pass Details

Date: 25 January 2021
Orbit: 565 x 584 km, 98.2° (Epoch: 06 March)

Event Time Altitude Azimuth Distance (km) Brightness Sun altitude
Rises 14:56:37 0° 21° (NNE) 2,790 ? -29.2°
Reaches altitude 10° 14:58:47 10° 17° (NNE) 1,891 ? -29.0°
Enters shadow 15:00:09 20° 11° (N) 1,360 ? -28.8°
